2022-155E (54255 NORAD) Tracking and Keplerian Element Data

This shows tracking and keplerian element data for the satellite.

Feedback or suggestion? Click here.




ElementValue
Catalog54255
Name2022-155E
Epoch Orbit889
Epoch Day14.18333189
Epoch Year2023
RAAN122.956
Inclination97.5341
Eccentricity0.0015203
Argument of Perigee87.1588
Mean Anonmoly5.0228
Mean Motion15.10133077
Decay Rate9.083E-05
L11 54255U 22155E 23014.18333189 .00009083 00000+0 55912-3 0 9996
L22 54255 97.5341 122.9560 0015203 87.1588 5.0228 15.10133077 8895



Live tracking and technical data element details for 2022-155E (NORAD 54255). 2022-155E can be tracked NOW for your location showing map with azimuth and elevation plus other details from your city location.







IsCatalogInMostPopularTable: catalog: 54255, numindb: 14
Update: records affected: 1



GetName: 54255 2022-155E

Hit Count: updated at: Fri, 27 Jan 2023 20:37:36 GMT